Location: Harbor View
(36.2448°N, 86.5797°W)
Time: 08:26:57
(UTC+00:00)

COSMO-SKYMED 1 - Pass Details

Date: 06 March 2021
Orbit: 621 x 623 km, 97.9° (Epoch: 13 April)

Event Time Altitude Azimuth Distance (km) Brightness Sun altitude
Rises 00:51:16 0° 353° (N) 2,909 6.1 -14.1°
Reaches altitude 10° 00:54:02 10° 335° (NNW) 1,997 5.6 -14.7°
Maximum altitude 00:56:57 18° 292° (WNW) 1,540 5.6 -15.3°
Drops below altitude 10° 00:59:51 10° 250° (WSW) 1,988 6.2 -15.9°
Sets 01:02:36 0° 231° (SW) 2,889 6.7 -16.4°
